Weather Roundup
Issued by NWS Chicago, IL

Home | Current Version | Previous Version | Text Only | Print | Product List | Glossary On
Versions: 1 2 3 4 5 6 7 8 9 10 11 12 13 14 15 16 17 18 19 20 21 22 23 24 25 26 27 28 29 30 31 32 33 34 35 36 37 38 39 40 41 42 43 44 45 46 47 48 49 50
000
NZUS59 KLOT 232308
HRRLOT

CHICAGO AREA WEATHER ROUNDUP
NATIONAL WEATHER SERVICE CHICAGO/ROMEOVILLE IL
600 PM CDT SAT JUL 23 2016

NOTE: "FAIR" INDICATES FEW OR NO CLOUDS BELOW 12,000 FEET WITH NO
SIGNIFICANT WEATHER AND/OR OBSTRUCTIONS TO VISIBILITY.

* THESE STATIONS ARE NOT UNDER NWS QUALITY CONTROL. THEY ALSO MAY NOT
  REPORT WEATHER SUCH AS PRECIPITATION OR FOG.

ILZ005-006-012>014-019>023-240000-
NORTHEAST ILLINOIS

CITY           SKY/WX    TMP DP  RH WIND       PRES   REMARKS
OHARE          CLOUDY    87  74  64 SW3       29.92F HX  95
MIDWAY         CLOUDY    89  75  63 SW10      29.91F HX  99
AURORA         CLOUDY    86  78  77 SW3       29.94F HX  98
LANSING*       CLOUDY    87  76  69 S9        29.93F HX  98
JOLIET*        CLOUDY    88  77  69 SW5       29.92F HX 100
WAUKEGAN       TSTM      71  70  96 VRB3      29.97S FOG
DUPAGE AIRPORT CLOUDY    85  76  74 W6        29.93S HX  94
WHEELING       CLOUDY    78  73  84 N28G36    29.97R THUNDER HX  81
MORRIS*        CLOUDY    87  77  72 S6        29.91F HX  99
LEWIS AIRPORT* CLOUDY    85  73  67 SW7       29.92F HX  91
NORTHERLY ISL    N/A     78  74  87 S2          N/A  HX  81
$$

WIZ051-052-058>065-066-070>072-240000-
SOUTHEAST WISCONSIN

CITY           SKY/WX    TMP DP  RH WIND       PRES   REMARKS
MILWAUKEE      LGT RAIN  75  70  84 SE6       29.95F
KENOSHA*       TSTM      72  67  84 SE10      29.96F
RACINE*        LGT RAIN  73  70  90 NW3       29.97R
BURLINGTON     CLOUDY    73  70  91 CALM      29.97R
WAUKESHA       LGT RAIN  72  70  94 E5        29.96F
$$

INZ001>003-010>013-019-020-240000-
NORTHWEST INDIANA

CITY           SKY/WX    TMP DP  RH WIND       PRES   REMARKS
GARY*          PTSUNNY   90 N/A N/A S6        29.92F
MICHIGAN CITY* NOT AVBL
RENSSELAER*    NOT AVBL
VALPARAISO     MOSUNNY   88  76  67 SW7       29.94F HX  99
$$

LMZ740>746-240000-
SOUTHERN LAKE MICHIGAN

STATION/POSITION TIME  SKY/WX   TEMP WIND        PRES    VSBY
                                AIR  DIR/SP/G
                 (UTC)          (F)  (DEG/KT/KT) (MB)    (MI)
HARRISON CRIB    2200            81  100/ 11/ 11   N/A
BURNHAM HARBOR   2300            78  140/  3/  7   N/A
CALUMET HARBOR   2224                 90/  6/  9   N/A
BURNS HARBOR     2200            81   60/  9/ 11 1014.2S
MICHIGAN CITY    2220            79   30/  8/  9   N/A
$$

ABBREVIATIONS USED IN REMARKS
   TC - TEMPERATURE IN CELSIUS
  WCI - WIND CHILL INDEX
   HX - HEAT INDEX
  VSB - VISIBILITY
$$



USA.gov is the U.S. government's official web portal to all federal, state and local government web resources and services.